TIME,DELAY(SENSOR),PRES,OXYGEN,RAWTEMP,T(OPTODE),TCPHASE,FLUOR,BETA(BETA700),BETA(BETA412),BETA(BETA440),CDOM,C(CSC),ED(ED411.90),ED(ED443.80),ED(ED489.40),ED(ED554.70),LU(LU412.20),LU(LU443.80),LU(LU489.40),LU(LU555.00),COMP,TILTX,TILTY,CHECK
1364768930,5806,846.7700195312500000,198.5536041259765600,502.9068908691406000,7.4392819404602050,38.0391998291015600,94,1395,93,75,78,11318,2146962057,2147513536,2147289874,2147510418,2147085769,2146916315,2147714971,2147122468,539,-1,8,49965
1364772526,5806,963.1099853515625000,235.6889953613281200,544.4030761718750000,6.1449971199035645,36.6627006530761700,98,1434,94,74,79,11317,2146962432,2147517449,2147296676,2147522770,2147091721,2146918912,2147722816,2147120914,2989,-1,9,31469
1364776126,5808,991.2199707031250000,255.2317962646484400,561.4882812500000000,5.6083149909973145,35.9951896667480500,97,1453,95,76,80,11303,2146964032,2147516105,2147300260,2147521691,2147087113,2146916781,2147728246,2147122450,575,-1,8,39337
1364779726,5807,997.2800292968750000,256.5679016113281000,562.2855224609375000,5.5832180976867680,35.9455909729003900,97,1457,93,76,80,11315,2146963565,2147517549,2147296987,2147524891,2147086875,2146916370,2147729472,2147120649,155,-1,8,10235
1364783326,5806,992.5599975585938000,261.4573974609375000,564.1655273437500000,5.5240077972412110,35.7486915588378900,97,1458,93,74,79,11310,2146959972,2147514532,2147300992,2147523858,2147089005,2146917037,2147728932,2147120786,2882,-1,9,41021
1364786926,5805,1006.0999755859375000,262.3320922851562500,564.0349731445312000,5.5281181335449220,35.7057991027832000,97,1482,94,75,79,11312,2146964224,2147517824,2147299986,2147522998,2147087954,2146915675,2147730112,2147121920,3282,-1,8,33857
1364790526,5809,1002.4400024414062000,259.9955139160156000,564.0352172851562000,5.5281119346618650,35.8153495788574200,97,1471,92,76,79,11307,2146961581,2147518683,2147299382,2147521462,2147087387,2146916416,2147730422,2147120018,70,-1,8,11234
1364794126,5801,1010.5800170898438000,260.1588134765625000,563.0579223632812000,5.5588951110839840,35.7902793884277340,95,1472,93,75,79,11282,2146963584,2147520018,2147301513,2147522057,2147088475,2146918592,2147729499,2147121645,3509,-1,8,31883
1364797726,5808,1006.3800048828125000,258.2565917968750000,563.2984008789062000,5.5513191223144530,35.8840904235839840,97,1470,102,75,79,11277,2146960036,2147521499,2147298678,2147523382,2147084608,2146913316,2147730084,2147122450,3019,-1,9,58955
1364801326,5805,1003.7800292968750000,259.7596130371094000,564.5654296875000000,5.5114059448242190,35.8364601135253900,96,1477,94,76,79,11285,2146963739,2147518701,2147298550,2147522020,2147089188,2146918701,2147728548,2147119213,3562,-1,8,9784
1364804926,5806,1010.4400024414062000,261.6011047363281000,567.8114013671875000,5.4090938568115230,35.8089485168457000,97,1468,94,76,79,11275,2146963766,2147516809,2147296941,2147522130,2147085220,2146909385,2147729801,2147116214,3230,-1,8,30443
1364808526,5806,1005.6199951171875000,260.9230041503906000,568.5225830078125000,5.3866667747497560,35.8544998168945300,96,1467,94,75,79,11275,2146960512,2147520210,2147301540,2147525339,2147087177,2146915410,2147726400,2147119899,3301,-1,8,43706
1364812126,5805,1018.1300048828125000,261.4798889160156000,565.9940185546875000,5.4663910865783690,35.7819290161132800,98,1468,93,76,79,11273,2146963181,2147518034,2147299081,2147520064,2147090121,2146918006,2147730368,2147121773,167,-1,8,7712
1364815726,5807,1018.9000244140625000,259.8276977539062500,563.6591186523438000,5.5399589538574220,35.8164482116699200,96,1466,94,75,79,11273,2146964150,2147518866,2147298139,2147522742,2147088548,2146918043,2147730221,2147119323,108,-1,8,59012
1364819326,5806,1016.9500122070312000,261.6784973144531000,563.9594116210938000,5.5304999351501465,35.7351188659668000,97,1471,98,76,79,11273,2146961764,2147520850,2147298797,2147522331,2147088667,2146921554,2147728411,2147118409,3315,-1,9,32049
1364822926,5809,1014.6199951171875000,259.9801940917969000,564.3956298828125000,5.5167579650878910,35.8223686218261700,97,1470,94,75,78,11275,2146961709,2147518253,2147300754,2147523867,2147087771,2146919634,2147723181,2147119168,65,-1,8,53924
1364826526,5804,1009.5900268554688000,258.8283081054687500,564.0358276367188000,5.5280909538269040,35.8706016540527340,97,1468,95,76,78,11269,2146962651,2147520466,2147297042,2147523894,2147087753,2146918345,2147732342,2147118646,3572,-1,8,10024
1364830126,5806,1011.5399780273438000,259.0422058105469000,566.5587768554688000,5.4485859870910645,35.9065895080566400,98,1473,93,76,79,11272,2146964397,2147519670,2147298459,2147522669,2147089408,2146915565,2147726052,2147114898,3431,-1,8,11416
1364833726,5808,1016.5100097656250000,269.6673889160156000,573.8068237304688000,5.2198910713195800,35.5485610961914060,97,1473,94,76,79,11272,2146961764,2147517284,2147299364,2147525001,2147088832,2146917238,2147727963,2147120996,275,-1,8,3829
1364837326,5803,1012.5399780273438000,270.8070983886719000,573.9409179687500000,5.2156538963317870,35.4991111755371100,98,1479,94,76,79,11269,2146962002,2147520009,2147297005,2147521536,2147086884,2146920393,2147733696,2147120091,3371,-1,8,29570
1364840926,5807,1014.1799926757812000,270.4736938476562500,574.9822998046875000,5.1827578544616700,35.5339508056640600,96,1480,96,75,78,11270,2146961325,2147518235,2147300224,2147523538,2147092379,2146916781,2147729197,2147116955,3322,-1,9,12444
1364844526,5809,1014.3599853515625000,271.7005920410156000,575.1688232421875000,5.1768670082092285,35.4814109802246100,98,1477,95,75,79,11265,2146969261,2147521993,2147303387,2147523099,2147092333,2146918125,2147726848,2147119533,3588,-1,9,6260
1364848126,5804,1019.4600219726562000,273.9151000976562500,575.0177001953125000,5.1816391944885250,35.3801994323730500,98,1477,93,76,78,11268,2146964955,2147520576,2147300681,2147522605,2147087734,2146919131,2147730678,2147118509,3480,-1,8,7312
1364851726,5807,1019.0000000000000000,272.9035034179687500,575.4575805664062000,5.1677379608154300,35.4330596923828100,99,1480,95,76,80,11259,2146963593,2147520329,2147299885,2147522715,2147088694,2146918436,2147733604,2147119094,3419,-1,9,49285
1364855326,5805,1017.0100097656250000,271.7027893066406000,573.9005126953125000,5.2169299125671390,35.4584083557128900,98,1483,96,76,79,11261,2146963922,2147517915,2147299245,2147521371,2147089472,2146919369,2147727926,2147120420,107,-1,8,24374
1364858926,5803,1019.8599853515625000,272.3935852050781000,574.9340209960938000,5.1842818260192870,35.4460296630859400,98,1484,93,76,79,11260,2146964827,2147520649,2147300891,2147523346,2147089033,2146917961,2147730578,2147120603,3441,-1,9,26859
1364862526,5809,1022.7299804687500000,272.0770874023437500,573.5711059570312000,5.2273349761962890,35.4349403381347660,99,1487,93,75,79,11257,2146961874,2147518592,2147298788,2147521929,2147090029,2146916498,2147726326,2147118262,15,-1,8,29217
1364866126,5809,1016.8900146484375000,268.4559936523437500,573.5996704101562000,5.2264308929443360,35.5992393493652340,98,1487,94,76,79,11256,2146966290,2147521325,2147297161,2147523958,2147091840,2146917458,2147730907,2147119122,10,-1,8,11806
1364869726,5809,1019.9000244140625000,270.3688964843750000,574.9387207031250000,5.1841349601745605,35.5376396179199200,97,1486,96,76,79,11259,2146963894,2147516534,2147299602,2147522057,2147086628,2146919469,2147730294,2147121344,26,-1,8,10671
1364873326,5808,1020.7999877929688000,272.7188110351562500,574.5056152343750000,5.1978192329406740,35.4235687255859400,98,1490,93,75,79,11254,2146962349,2147517595,2147302445,2147522605,2147086016,2146918774,2147728064,2147118765,441,-1,8,33174
1364876926,5804,1018.2700195312500000,271.9544067382812500,574.5941162109375000,5.1950230598449710,35.4599189758300800,98,1490,93,74,80,11254,2146962258,2147519853,2147299163,2147523154,2147090514,2146919872,2147734134,2147117138,3541,-1,8,3431
1364880526,5809,1021.1699829101562000,272.7500000000000000,574.6497192382812000,5.1932659149169920,35.4249000549316400,97,1493,93,76,79,11253,2146964589,2147524443,2147297472,2147523830,2147090066,2146919012,2147726427,2147120548,187,-1,8,3545
1364884126,5807,1019.2500000000000000,271.4100036621094000,575.1378173828125000,5.1778450012207030,35.4943809509277340,98,1494,97,76,78,11253,2146963730,2147518774,2147303003,2147524233,2147086052,2146918994,2147732992,2147119872,3425,-1,8,47232
1364887726,5808,1024.2500000000000000,270.3110961914062500,574.6845092773438000,5.1921668052673340,35.5350799560546900,100,1490,94,76,79,11253,2146961380,2147522185,2147301961,2147524196,2147089417,2146914715,2147727396,2147119835,278,-1,8,2960
1364891326,5808,1019.3699951171875000,270.2580871582031000,573.5042724609375000,5.2294449806213380,35.5162811279296900,97,1493,94,77,80,11253,2146965833,2147520009,2147300681,2147525659,2147088905,2146922432,2147731364,2147121225,103,-1,8,15448
1364894926,5805,1017.0700073242188000,268.3200988769531000,574.5620117187500000,5.1960349082946780,35.6234703063964840,97,1488,95,76,79,11249,2146963209,2147522395,2147298038,2147522797,2147090304,2146917851,2147729344,2147119579,3036,-1,8,50879
1364898526,5806,1023.1900024414062000,269.7947998046875000,575.2398071289062000,5.1746220588684080,35.5689506530761700,98,1495,94,76,79,11252,2146963821,2147522422,2147301147,2147527012,2147087222,2146916278,2147731328,2147119826,3530,-1,8,2741
1364902126,5808,1019.5399780273438000,270.5710144042969000,575.0056152343750000,5.1820240020751950,35.5293998718261700,97,1497,93,75,79,11247,2146964434,2147520137,2147300013,2147525577,2147086893,2146916864,2147730230,2147117485,20,-1,8,52590
1364905726,5807,1025.2500000000000000,273.2063903808594000,575.1685791015625000,5.1768717765808105,35.4141998291015600,98,1494,94,77,80,11250,2146965366,2147517485,2147301714,2147526016,2147086957,2146917906,2147731026,2147121645,3238,-1,9,28187
1364909326,5807,1018.4699707031250000,271.2149963378906000,575.1970825195312000,5.1759700775146480,35.5040397644043000,97,1501,95,76,79,11249,2146963922,2147521060,2147301924,2147525778,2147084096,2146918528,2147725878,2147119488,3478,-1,8,38613
1364912926,5805,1018.6900024414062000,273.1202087402344000,576.1046752929688000,5.1472911834716800,35.4356117248535160,97,1501,94,76,80,11246,2146963721,2147520475,2147299748,2147524443,2147087058,2146919680,2147727424,2147124260,117,-1,8,63455
1364913355,5804,1019.5000000000000000,273.5783996582031000,576.2355957031250000,5.1431560516357420,35.4174690246582000,97,1497,93,75,79,11255,2146963446,2147516928,2147299712,2147524077,2147089380,2146916836,2147728073,2147122898,3539,-1,9,14122
